Location: ?
(35.4064°N, 139.3593°E)
Time: 15:25:08
(UTC+00:00)

Hubble Space Telescope - Pass Details

Date: 28 June 2024
Orbit: 509 x 513 km, 28.5° (Epoch: 23 July)

Event Time Altitude Azimuth Distance (km) Brightness Sun altitude
Exits shadow 18:27:17 15° 209° (SSW) 1,414 2.3 -11.4°
Maximum altitude 18:29:22 23° 168° (SSE) 1,121 2.1 -11.1°
Drops below altitude 10° 18:32:31 10° 116° (ESE) 1,718 3.7 -10.6°
Sets 18:35:04 0° 101° (E) 2,602 4.9 -10.2°
